,,Stat6,,Stat2,,Stat8,,Stat9,,Stat10,,Wind1,,Wind1,
time,status,PA1M_AVG,status,PR1M_SUM,status,RH1M_AVG,status,SR1M_AVG,status,TA1M_AVG,status,W1dAve1m,status,W1sAve1m,
2005-10-21, 00:00:00,VALID,918.361,VALID,0,VALID,100,VALID,-0.0339617,VALID,18.847,VALID,19,VALID,0.280556,
2005-10-21, 00:01:00,VALID,918.335,VALID,0,VALID,100,VALID,-0.0509425,VALID,18.8343,VALID,19,VALID,0.585366,
2005-10-21, 00:02:00,VALID,918.333,VALID,0,VALID,100,VALID,-0.0679233,VALID,18.8247,VALID,19,VALID,0.961868,
2005-10-21, 00:03:00,VALID,918.319,VALID,0,VALID,100,VALID,-0.0509425,VALID,18.8343,VALID,16,VALID,0.532522,
2005-10-21, 00:04:00,VALID,918.312,VALID,0,VALID,100,VALID,-0.0339617,VALID,18.8438,VALID,9,VALID,0.335069,
2005-10-21, 00:05:00,VALID,918.292,VALID,0,VALID,100,VALID,0,VALID,18.817,VALID,352,VALID,0.888393,
2005-10-21, 00:06:00,VALID,918.278,VALID,0,VALID,100,VALID,0,VALID,18.7986,VALID,343,VALID,0.486806,
2005-10-21, 00:07:00,VALID,918.273,VALID,0,VALID,100,VALID,-0.0509425,VALID,18.7956,VALID,348,VALID,0.216463,
2005-10-21, 00:08:00,VALID,918.262,VALID,0,VALID,100,VALID,-0.0339617,VALID,18.7857,VALID,348,VALID,0.515997,
2005-10-21, 00:09:00,VALID,918.252,VALID,0,VALID,100,VALID,-0.0339617,VALID,18.7785,VALID,342,VALID,0.722743,
2005-10-21, 00:10:00,VALID,918.216,VALID,0,VALID,100,VALID,-0.0509425,VALID,18.7762,VALID,344,VALID,1.03925,
2005-10-21, 00:11:00,VALID,918.209,VALID,0,VALID,100,VALID,0,VALID,18.7501,VALID,7,VALID,1.01367,
2005-10-21, 00:12:00,VALID,918.176,VALID,0,VALID,100,VALID,-0.0339617,VALID,18.77,VALID,20,VALID,0.927401,
2005-10-21, 00:13:00,VALID,918.177,VALID,0,VALID,100,VALID,-0.0339617,VALID,18.7665,VALID,353,VALID,0.527043,
2005-10-21, 00:14:00,VALID,918.164,VALID,0,VALID,100,VALID,-0.0509425,VALID,18.7529,VALID,356,VALID,0.557478,
2005-10-21, 00:15:00,VALID,918.148,VALID,0,VALID,100,VALID,-0.0339617,VALID,18.779,VALID,4,VALID,0.70585,
2005-10-21, 00:16:00,VALID,918.134,VALID,0,VALID,100,VALID,-0.0339617,VALID,18.7991,VALID,360,VALID,0.682422,
2005-10-21, 00:17:00,VALID,918.129,VALID,0,VALID,100,VALID,-0.0509425,VALID,18.8018,VALID,25,VALID,0.921303,
2005-10-21, 00:18:00,VALID,918.12,VALID,0,VALID,100,VALID,0.0509425,VALID,18.8004,VALID,2,VALID,1.01781,
2005-10-21, 00:19:00,VALID,918.107,VALID,0,VALID,100,VALID,0.0169808,VALID,18.7783,VALID,346,VALID,0.832961,
2005-10-21, 00:20:00,VALID,918.101,VALID,0,VALID,100,VALID,0.0169808,VALID,18.749,VALID,327,VALID,1.23808,
2005-10-21, 00:21:00,VALID,918.091,VALID,0,VALID,100,VALID,0,VALID,18.7365,VALID,333,VALID,0.81686,
2005-10-21, 00:22:00,VALID,918.094,VALID,0,VALID,100,VALID,0.0509425,VALID,18.7294,VALID,321,VALID,0.695676,
2005-10-21, 00:23:00,VALID,918.094,VALID,0,VALID,100,VALID,0.0339617,VALID,18.7494,VALID,352,VALID,0.833274,
2005-10-21, 00:24:00,VALID,918.081,VALID,0,VALID,100,VALID,0.0169808,VALID,18.739,VALID,353,VALID,0.63125,
2005-10-21, 00:25:00,VALID,918.075,VALID,0,VALID,100,VALID,0.0339617,VALID,18.7455,VALID,354,VALID,0.34157,
2005-10-21, 00:26:00,VALID,918.067,VALID,0,VALID,100,VALID,0.0849042,VALID,18.788,VALID,15,VALID,0.503906,
2005-10-21, 00:27:00,VALID,918.062,VALID,0,VALID,100,VALID,0.0849042,VALID,18.8101,VALID,15,VALID,0.342773,
2005-10-21, 00:28:00,VALID,918.026,VALID,0,VALID,100,VALID,0.0679233,VALID,18.82,VALID,3,VALID,0.587695,
2005-10-21, 00:29:00,VALID,918.024,VALID,0,VALID,100,VALID,0.0169808,VALID,18.8168,VALID,15,VALID,0.642708,
2005-10-21, 00:30:00,VALID,918.008,VALID,0,VALID,100,VALID,0.0679233,VALID,18.8071,VALID,14,VALID,0.919727,
2005-10-21, 00:31:00,VALID,917.993,VALID,0,VALID,100,VALID,0.0339617,VALID,18.8006,VALID,6,VALID,0.789825,
2005-10-21, 00:32:00,VALID,917.988,VALID,0,VALID,100,VALID,0.0339617,VALID,18.7681,VALID,334,VALID,0.939024,
2005-10-21, 00:33:00,VALID,917.954,VALID,0,VALID,100,VALID,-0.0679233,VALID,18.7312,VALID,331,VALID,1.11265,
2005-10-21, 00:34:00,VALID,917.957,VALID,0,VALID,100,VALID,-0.0509425,VALID,18.7149,VALID,338,VALID,0.37018,
2005-10-21, 00:35:00,VALID,917.93,VALID,0,VALID,100,VALID,-0.101885,VALID,18.728,VALID,338,VALID,0.297828,
2005-10-21, 00:36:00,VALID,917.917,VALID,0,VALID,100,VALID,-0.0679233,VALID,18.7536,VALID,360,VALID,0.506076,
2005-10-21, 00:37:00,VALID,917.924,VALID,0,VALID,100,VALID,-0.0679233,VALID,18.7794,VALID,13,VALID,0.100675,
2005-10-21, 00:38:00,VALID,917.919,VALID,0,VALID,100,VALID,-0.0339617,VALID,18.7889,VALID,13,VALID,0,
2005-10-21, 00:39:00,VALID,917.899,VALID,0,VALID,100,VALID,-0.0169808,VALID,18.8021,VALID,13,VALID,0.250781,
2005-10-21, 00:40:00,VALID,917.862,VALID,0,VALID,100,VALID,-0.0509425,VALID,18.7859,VALID,23,VALID,1.00363,
2005-10-21, 00:41:00,VALID,917.859,VALID,0,VALID,100,VALID,-0.0339617,VALID,18.776,VALID,3,VALID,0.833984,
2005-10-21, 00:42:00,VALID,917.869,VALID,0,VALID,100,VALID,-0.0339617,VALID,18.7891,VALID,338,VALID,0.388494,
2005-10-21, 00:43:00,VALID,917.857,VALID,0,VALID,100,VALID,-0.0509425,VALID,18.7797,VALID,322,VALID,0.0223214,
2005-10-21, 00:44:00,VALID,917.827,VALID,0,VALID,100,VALID,-0.0509425,VALID,18.7762,VALID,349,VALID,0.0895433,
2005-10-21, 00:45:00,VALID,917.815,VALID,0,VALID,100,VALID,-0.0679233,VALID,18.7794,VALID,51,VALID,0.198038,
2005-10-21, 00:46:00,VALID,917.823,VALID,0,VALID,100,VALID,-0.0509425,VALID,18.812,VALID,45,VALID,0.19112,
2005-10-21, 00:47:00,VALID,917.819,VALID,0,VALID,100,VALID,-0.0849042,VALID,18.8572,VALID,44,VALID,0.232067,
2005-10-21, 00:48:00,VALID,917.793,VALID,0,VALID,100,VALID,-0.0509425,VALID,18.8537,VALID,41,VALID,0.452592,
2005-10-21, 00:49:00,VALID,917.76,VALID,0,VALID,100,VALID,-0.0339617,VALID,18.8604,VALID,29,VALID,0.705859,
2005-10-21, 00:50:00,VALID,917.756,VALID,0,VALID,100,VALID,-0.0509425,VALID,18.8577,VALID,21,VALID,0.661399,
2005-10-21, 00:51:00,VALID,917.75,VALID,0,VALID,100,VALID,-0.0339617,VALID,18.8438,VALID,346,VALID,0.391627,
2005-10-21, 00:52:00,VALID,917.746,VALID,0,VALID,100,VALID,-0.0339617,VALID,18.818,VALID,324,VALID,0.0754616,
2005-10-21, 00:53:00,VALID,917.718,VALID,0,VALID,100,VALID,-0.0339617,VALID,18.818,VALID,342,VALID,0.294207,
2005-10-21, 00:54:00,VALID,917.653,VALID,0,VALID,100,VALID,-0.0509425,VALID,18.8023,VALID,28,VALID,0.789773,
2005-10-21, 00:55:00,VALID,917.61,VALID,0.2,VALID,100,VALID,-0.0679233,VALID,18.7668,VALID,32,VALID,1.17714,
2005-10-21, 00:56:00,VALID,917.62,VALID,0,VALID,100,VALID,-0.0679233,VALID,18.7506,VALID,12,VALID,0.616806,
2005-10-21, 00:57:00,VALID,917.626,VALID,0,VALID,100,VALID,-0.0169808,VALID,18.7375,VALID,316,VALID,0.520419,
2005-10-21, 00:58:00,VALID,917.606,VALID,0,VALID,100,VALID,-0.0339617,VALID,18.7312,VALID,307,VALID,0.116493,
2005-10-21, 00:59:00,VALID,917.573,VALID,0,VALID,100,VALID,-0.0509425,VALID,18.7345,VALID,54,VALID,0.222565,
2005-10-21, 01:00:00,VALID,917.556,VALID,0,VALID,100,VALID,-0.0169808,VALID,18.7275,VALID,19,VALID,0.900799,
2005-10-21, 01:01:00,VALID,917.557,VALID,0,VALID,100,VALID,-0.0339617,VALID,18.7566,VALID,339,VALID,0.556323,
2005-10-21, 01:02:00,VALID,917.55,VALID,0,VALID,100,VALID,-0.0169808,VALID,18.7501,VALID,306,VALID,0.172965,
2005-10-21, 01:03:00,VALID,917.524,VALID,0,VALID,100,VALID,-0.0339617,VALID,18.7536,VALID,306,VALID,0.00688244,
2005-10-21, 01:04:00,VALID,917.485,VALID,0,VALID,100,VALID,-0.0679233,VALID,18.7442,VALID,347,VALID,0.288881,
2005-10-21, 01:05:00,VALID,917.439,VALID,0,VALID,100,VALID,-0.0849042,VALID,18.7412,VALID,42,VALID,1.06068,
2005-10-21, 01:06:00,VALID,917.425,VALID,0,VALID,100,VALID,-0.0509425,VALID,18.7347,VALID,6,VALID,0.910836,
2005-10-21, 01:07:00,VALID,917.41,VALID,0,VALID,100,VALID,-0.0339617,VALID,18.7509,VALID,21,VALID,0.652253,
2005-10-21, 01:08:00,VALID,917.408,VALID,0,VALID,100,VALID,-0.0339617,VALID,18.7506,VALID,7,VALID,0.489462,
2005-10-21, 01:09:00,VALID,917.41,VALID,0,VALID,100,VALID,-0.0339617,VALID,18.7442,VALID,333,VALID,0.407584,
2005-10-21, 01:10:00,VALID,917.386,VALID,0,VALID,100,VALID,-0.0339617,VALID,18.7181,VALID,352,VALID,0.146391,
2005-10-21, 01:11:00,VALID,917.362,VALID,0,VALID,100,VALID,-0.0169808,VALID,18.7347,VALID,319,VALID,0.394727,
2005-10-21, 01:12:00,VALID,917.353,VALID,0,VALID,100,VALID,-0.0339617,VALID,18.7116,VALID,274,VALID,0.0123857,
2005-10-21, 01:13:00,VALID,917.336,VALID,0,VALID,100,VALID,-0.0339617,VALID,18.7211,VALID,274,VALID,0,
2005-10-21, 01:14:00,VALID,917.301,VALID,0,VALID,100,VALID,-0.0679233,VALID,18.731,VALID,274,VALID,0.000558036,
2005-10-21, 01:15:00,VALID,917.266,VALID,0,VALID,100,VALID,-0.0509425,VALID,18.7474,VALID,322,VALID,0.304869,
2005-10-21, 01:16:00,VALID,917.253,VALID,0,VALID,100,VALID,-0.0679233,VALID,18.7405,VALID,15,VALID,0.713415,
2005-10-21, 01:17:00,VALID,917.243,VALID,0,VALID,100,VALID,-0.0679233,VALID,18.7568,VALID,18,VALID,0.595117,
2005-10-21, 01:18:00,VALID,917.228,VALID,0,VALID,100,VALID,-0.0509425,VALID,18.7661,VALID,3,VALID,0.595117,
2005-10-21, 01:19:00,VALID,917.22,VALID,0,VALID,100,VALID,-0.0509425,VALID,18.7439,VALID,346,VALID,0.422433,
2005-10-21, 01:20:00,VALID,917.204,VALID,0,VALID,100,VALID,-0.0339617,VALID,18.734,VALID,2,VALID,0.638317,
2005-10-21, 01:21:00,VALID,917.183,VALID,0,VALID,100,VALID,-0.0679233,VALID,18.7437,VALID,358,VALID,0.333891,
2005-10-21, 01:22:00,VALID,917.161,VALID,0,VALID,100,VALID,-0.0679233,VALID,18.7379,VALID,357,VALID,0.381076,
2005-10-21, 01:23:00,VALID,917.153,VALID,0,VALID,100,VALID,-0.0509425,VALID,18.7439,VALID,357,VALID,0.460938,
2005-10-21, 01:24:00,VALID,917.127,VALID,0,VALID,100,VALID,-0.0509425,VALID,18.7571,VALID,357,VALID,0.622514,
2005-10-21, 01:25:00,VALID,917.105,VALID,0,VALID,100,VALID,-0.0509425,VALID,18.7275,VALID,10,VALID,0.603125,
2005-10-21, 01:26:00,VALID,917.085,VALID,0,VALID,100,VALID,-0.0169808,VALID,18.7208,VALID,11,VALID,0.779139,
2005-10-21, 01:27:00,VALID,917.073,VALID,0,VALID,100,VALID,-0.0509425,VALID,18.7282,VALID,12,VALID,0.869048,
2005-10-21, 01:28:00,VALID,917.064,VALID,0,VALID,100,VALID,-0.0679233,VALID,18.7377,VALID,11,VALID,0.701672,
2005-10-21, 01:29:00,VALID,917.043,VALID,0,VALID,100,VALID,-0.0509425,VALID,18.7467,VALID,9,VALID,0.940278,
2005-10-21, 01:30:00,VALID,917.032,VALID,0,VALID,100,VALID,-0.0679233,VALID,18.7216,VALID,337,VALID,1.02077,
2005-10-21, 01:31:00,VALID,917.018,VALID,0,VALID,100,VALID,-0.0679233,VALID,18.6796,VALID,331,VALID,0.984947,
2005-10-21, 01:32:00,VALID,917.001,VALID,0,VALID,100,VALID,-0.0339617,VALID,18.6793,VALID,340,VALID,0.838796,
2005-10-21, 01:33:00,VALID,916.995,VALID,0,VALID,100,VALID,-0.0339617,VALID,18.663,VALID,7,VALID,0.88058,
2005-10-21, 01:34:00,VALID,916.991,VALID,0,VALID,100,VALID,-0.0339617,VALID,18.6826,VALID,22,VALID,0.571615,
2005-10-21, 01:35:00,VALID,916.986,VALID,0,VALID,100,VALID,-0.0509425,VALID,18.7181,VALID,19,VALID,0.742578,
2005-10-21, 01:36:00,VALID,916.976,VALID,0,VALID,100,VALID,-0.0509425,VALID,18.7412,VALID,13,VALID,0.680432,
2005-10-21, 01:37:00,VALID,916.979,VALID,0,VALID,100,VALID,-0.0849042,VALID,18.7536,VALID,353,VALID,0.454578,
2005-10-21, 01:38:00,VALID,916.97,VALID,0,VALID,100,VALID,-0.0169808,VALID,18.7568,VALID,351,VALID,0.326172,
2005-10-21, 01:39:00,VALID,916.959,VALID,0,VALID,100,VALID,-0.0849042,VALID,18.7541,VALID,352,VALID,0.910689,
2005-10-21, 01:40:00,VALID,916.952,VALID,0,VALID,100,VALID,-0.0849042,VALID,18.7084,VALID,334,VALID,0.722656,
2005-10-21, 01:41:00,VALID,916.947,VALID,0,VALID,100,VALID,-0.0509425,VALID,18.6992,VALID,319,VALID,0.582209,
2005-10-21, 01:42:00,VALID,916.937,VALID,0,VALID,100,VALID,-0.0849042,VALID,18.6766,VALID,316,VALID,0.239099,
2005-10-21, 01:43:00,VALID,916.932,VALID,0,VALID,100,VALID,-0.0509425,VALID,18.6858,VALID,337,VALID,0.409801,
2005-10-21, 01:44:00,VALID,916.921,VALID,0,VALID,100,VALID,-0.0679233,VALID,18.6955,VALID,346,VALID,0.498326,
2005-10-21, 01:45:00,VALID,916.913,VALID,0,VALID,100,VALID,-0.0339617,VALID,18.7216,VALID,359,VALID,0.475654,
2005-10-21, 01:46:00,VALID,916.901,VALID,0,VALID,100,VALID,0,VALID,18.7375,VALID,5,VALID,0.28639,
2005-10-21, 01:47:00,VALID,916.885,VALID,0,VALID,100,VALID,-0.0509425,VALID,18.7375,VALID,347,VALID,0.341206,
2005-10-21, 01:48:00,VALID,916.87,VALID,0,VALID,100,VALID,-0.0679233,VALID,18.7571,VALID,347,VALID,0.147656,
2005-10-21, 01:49:00,VALID,916.872,VALID,0,VALID,100,VALID,-0.101885,VALID,18.7573,VALID,346,VALID,0.351162,
2005-10-21, 01:50:00,VALID,916.856,VALID,0,VALID,100,VALID,-0.101885,VALID,18.7536,VALID,324,VALID,0.438616,
2005-10-21, 01:51:00,VALID,916.852,VALID,0,VALID,100,VALID,-0.101885,VALID,18.7506,VALID,348,VALID,0.150195,
2005-10-21, 01:52:00,VALID,916.843,VALID,0,VALID,100,VALID,-0.0849042,VALID,18.7601,VALID,348,VALID,0.145647,
2005-10-21, 01:53:00,VALID,916.832,VALID,0,VALID,100,VALID,-0.0849042,VALID,18.7926,VALID,348,VALID,0.0466797,
2005-10-21, 01:54:00,VALID,916.826,VALID,0,VALID,100,VALID,-0.101885,VALID,18.7857,VALID,348,VALID,0,
2005-10-21, 01:55:00,VALID,916.813,VALID,0,VALID,100,VALID,-0.0849042,VALID,18.7792,VALID,348,VALID,0.0223474,
2005-10-21, 01:56:00,VALID,916.808,VALID,0,VALID,100,VALID,-0.0849042,VALID,18.7958,VALID,348,VALID,0.00817587,
2005-10-21, 01:57:00,VALID,916.805,VALID,0,VALID,100,VALID,-0.0849042,VALID,18.8023,VALID,349,VALID,0.248757,
2005-10-21, 01:58:00,VALID,916.807,VALID,0,VALID,100,VALID,-0.101885,VALID,18.8154,VALID,352,VALID,0.529615,
2005-10-21, 01:59:00,VALID,916.785,VALID,0,VALID,100,VALID,-0.101885,VALID,18.809,VALID,5,VALID,0.626715,
2005-10-21, 02:00:00,VALID,916.792,VALID,0,VALID,100,VALID,-0.101885,VALID,18.7866,VALID,8,VALID,0.580171,
2005-10-21, 02:01:00,VALID,916.782,VALID,0,VALID,100,VALID,-0.0509425,VALID,18.7633,VALID,318,VALID,0.269271,
2005-10-21, 02:02:00,VALID,916.781,VALID,0,VALID,100,VALID,-0.101885,VALID,18.7444,VALID,320,VALID,0.0803329,
2005-10-21, 02:03:00,VALID,916.771,VALID,0,VALID,100,VALID,-0.0169808,VALID,18.7331,VALID,344,VALID,0.412538,
2005-10-21, 02:04:00,VALID,916.75,VALID,0,VALID,100,VALID,0,VALID,18.7137,VALID,331,VALID,0.639353,
2005-10-21, 02:05:00,VALID,916.739,VALID,0,VALID,100,VALID,0,VALID,18.6945,VALID,301,VALID,0.40968,
2005-10-21, 02:06:00,VALID,916.747,VALID,0,VALID,100,VALID,0,VALID,18.704,VALID,355,VALID,0.460756,
2005-10-21, 02:07:00,VALID,916.734,VALID,0,VALID,100,VALID,0,VALID,18.7132,VALID,357,VALID,1.08576,
2005-10-21, 02:08:00,VALID,916.718,VALID,0,VALID,100,VALID,0,VALID,18.6844,VALID,10,VALID,1.1008,
2005-10-21, 02:09:00,VALID,916.703,VALID,0,VALID,100,VALID,0,VALID,18.6876,VALID,8,VALID,1.30185,
2005-10-21, 02:10:00,VALID,916.714,VALID,0,VALID,100,VALID,0.0169808,VALID,18.6846,VALID,318,VALID,0.456174,
2005-10-21, 02:11:00,VALID,916.703,VALID,0,VALID,100,VALID,0,VALID,18.6906,VALID,318,VALID,0.00446429,
2005-10-21, 02:12:00,VALID,916.704,VALID,0,VALID,100,VALID,0.0679233,VALID,18.6973,VALID,318,VALID,0.131359,
2005-10-21, 02:13:00,VALID,916.686,VALID,0,VALID,100,VALID,0.0169808,VALID,18.6971,VALID,326,VALID,0.405273,
2005-10-21, 02:14:00,VALID,916.672,VALID,0,VALID,100,VALID,0.0339617,VALID,18.7005,VALID,350,VALID,0.706499,
2005-10-21, 02:15:00,VALID,916.661,VALID,0,VALID,100,VALID,0.0339617,VALID,18.6846,VALID,357,VALID,0.732376,
2005-10-21, 02:16:00,VALID,916.654,VALID,0,VALID,100,VALID,0,VALID,18.6613,VALID,351,VALID,0.869792,
2005-10-21, 02:17:00,VALID,916.64,VALID,0,VALID,100,VALID,0.0169808,VALID,18.6461,VALID,327,VALID,0.970203,
2005-10-21, 02:18:00,VALID,916.628,VALID,0,VALID,100,VALID,0,VALID,18.6459,VALID,355,VALID,0.8875,
2005-10-21, 02:19:00,VALID,916.619,VALID,0,VALID,100,VALID,0,VALID,18.6389,VALID,336,VALID,0.541921,
2005-10-21, 02:20:00,VALID,916.604,VALID,0,VALID,100,VALID,0,VALID,18.6265,VALID,335,VALID,1.20926,
2005-10-21, 02:21:00,VALID,916.583,VALID,0,VALID,100,VALID,0,VALID,18.6071,VALID,342,VALID,1.09524,
2005-10-21, 02:22:00,VALID,916.574,VALID,0,VALID,100,VALID,0.0169808,VALID,18.6074,VALID,336,VALID,1.26632,
2005-10-21, 02:23:00,VALID,916.563,VALID,0,VALID,100,VALID,0.0169808,VALID,18.5977,VALID,333,VALID,0.653516,
2005-10-21, 02:24:00,VALID,916.566,VALID,0,VALID,100,VALID,0,VALID,18.5903,VALID,330,VALID,0.882254,
2005-10-21, 02:25:00,VALID,916.551,VALID,0,VALID,100,VALID,0.0339617,VALID,18.6002,VALID,336,VALID,0.771621,
2005-10-21, 02:26:00,VALID,916.533,VALID,0,VALID,100,VALID,0.0339617,VALID,18.6064,VALID,1,VALID,1.17751,
2005-10-21, 02:27:00,VALID,916.516,VALID,0,VALID,100,VALID,0.0509425,VALID,18.5903,VALID,15,VALID,1.4151,
2005-10-21, 02:28:00,VALID,916.5,VALID,0,VALID,100,VALID,0.0339617,VALID,18.6074,VALID,13,VALID,1.11133,
2005-10-21, 02:29:00,VALID,916.479,VALID,0,VALID,100,VALID,0.0339617,VALID,18.5942,VALID,6,VALID,0.834821,
2005-10-21, 02:30:00,VALID,916.456,VALID,0,VALID,100,VALID,0,VALID,18.5813,VALID,12,VALID,1.32118,
2005-10-21, 02:31:00,VALID,916.45,VALID,0,VALID,100,VALID,0,VALID,18.5649,VALID,26,VALID,0.885298,
2005-10-21, 02:32:00,VALID,916.436,VALID,0,VALID,100,VALID,0.0509425,VALID,18.5647,VALID,1,VALID,0.694754,
2005-10-21, 02:33:00,VALID,916.424,VALID,0,VALID,100,VALID,0.0339617,VALID,18.5748,VALID,341,VALID,0.961111,
2005-10-21, 02:34:00,VALID,916.41,VALID,0,VALID,100,VALID,0,VALID,18.5391,VALID,2,VALID,1.01505,
2005-10-21, 02:35:00,VALID,916.403,VALID,0,VALID,100,VALID,0.0509425,VALID,18.5326,VALID,355,VALID,1.27939,
2005-10-21, 02:36:00,VALID,916.381,VALID,0,VALID,100,VALID,0.0169808,VALID,18.5132,VALID,2,VALID,1.03776,
2005-10-21, 02:37:00,VALID,916.364,VALID,0,VALID,100,VALID,0.0169808,VALID,18.5038,VALID,11,VALID,1.13262,
2005-10-21, 02:38:00,VALID,916.337,VALID,0,VALID,100,VALID,0.0169808,VALID,18.4941,VALID,2,VALID,1.4446,
2005-10-21, 02:39:00,VALID,916.325,VALID,0,VALID,100,VALID,0.0169808,VALID,18.4747,VALID,355,VALID,1.5407,
2005-10-21, 02:40:00,VALID,916.308,VALID,0,VALID,100,VALID,0,VALID,18.4328,VALID,343,VALID,0.877287,
2005-10-21, 02:41:00,VALID,916.294,VALID,0,VALID,100,VALID,0,VALID,18.4427,VALID,6,VALID,1.01036,
2005-10-21, 02:42:00,VALID,916.271,VALID,0,VALID,100,VALID,0,VALID,18.4461,VALID,357,VALID,0.847486,
2005-10-21, 02:43:00,VALID,916.268,VALID,0,VALID,100,VALID,-0.0169808,VALID,18.4521,VALID,14,VALID,1.23454,
2005-10-21, 02:44:00,VALID,916.273,VALID,0,VALID,100,VALID,0,VALID,18.4687,VALID,344,VALID,0.826672,
2005-10-21, 02:45:00,VALID,916.26,VALID,0,VALID,100,VALID,0.0169808,VALID,18.4657,VALID,328,VALID,0.778587,
2005-10-21, 02:46:00,VALID,916.241,VALID,0,VALID,100,VALID,0,VALID,18.442,VALID,333,VALID,0.408203,
2005-10-21, 02:47:00,VALID,916.232,VALID,0,VALID,100,VALID,0,VALID,18.4524,VALID,341,VALID,1.00457,
2005-10-21, 02:48:00,VALID,916.228,VALID,0,VALID,100,VALID,0.0169808,VALID,18.4429,VALID,330,VALID,1.17344,
2005-10-21, 02:49:00,VALID,916.215,VALID,0,VALID,100,VALID,0.0679233,VALID,18.4231,VALID,351,VALID,1.20876,
2005-10-21, 02:50:00,VALID,916.226,VALID,0,VALID,100,VALID,0.0169808,VALID,18.4397,VALID,350,VALID,1.06479,
2005-10-21, 02:51:00,VALID,916.222,VALID,0,VALID,100,VALID,0.0679233,VALID,18.3873,VALID,329,VALID,1.40039,
2005-10-21, 02:52:00,VALID,916.213,VALID,0,VALID,100,VALID,0.0339617,VALID,18.3811,VALID,304,VALID,0.774653,
2005-10-21, 02:53:00,VALID,916.226,VALID,0,VALID,100,VALID,0.0169808,VALID,18.3977,VALID,347,VALID,0.337081,
2005-10-21, 02:54:00,VALID,916.208,VALID,0,VALID,100,VALID,0.0169808,VALID,18.3975,VALID,345,VALID,0.151736,
2005-10-21, 02:55:00,VALID,916.207,VALID,0,VALID,100,VALID,0.0339617,VALID,18.3915,VALID,287,VALID,0.435268,
2005-10-21, 02:56:00,VALID,916.2,VALID,0,VALID,100,VALID,0.0339617,VALID,18.3882,VALID,304,VALID,0.0472656,
2005-10-21, 02:57:00,VALID,916.192,VALID,0,VALID,100,VALID,0.0339617,VALID,18.4106,VALID,304,VALID,0.0438262,
2005-10-21, 02:58:00,VALID,916.184,VALID,0,VALID,100,VALID,0.0339617,VALID,18.4143,VALID,302,VALID,0.162791,
2005-10-21, 02:59:00,VALID,916.166,VALID,0,VALID,100,VALID,0.0339617,VALID,18.3716,VALID,301,VALID,0.711825,
2005-10-21, 03:00:00,VALID,916.163,VALID,0,VALID,100,VALID,0.0339617,VALID,18.3848,VALID,327,VALID,0.268043,
2005-10-21, 03:01:00,VALID,916.175,VALID,0,VALID,100,VALID,0.0339617,VALID,18.3873,VALID,3,VALID,0.571007,
2005-10-21, 03:02:00,VALID,916.17,VALID,0,VALID,100,VALID,0.0509425,VALID,18.3779,VALID,318,VALID,0.662972,
2005-10-21, 03:03:00,VALID,916.173,VALID,0,VALID,100,VALID,-0.0679233,VALID,18.3767,VALID,302,VALID,0.646984,
2005-10-21, 03:04:00,VALID,916.162,VALID,0,VALID,100,VALID,-0.0679233,VALID,18.3382,VALID,278,VALID,0.631324,
2005-10-21, 03:05:00,VALID,916.166,VALID,0,VALID,100,VALID,-0.0679233,VALID,18.3638,VALID,293,VALID,0.312678,
2005-10-21, 03:06:00,VALID,916.171,VALID,0,VALID,100,VALID,-0.0679233,VALID,18.3799,VALID,317,VALID,0.319949,
2005-10-21, 03:07:00,VALID,916.161,VALID,0,VALID,100,VALID,-0.0509425,VALID,18.3633,VALID,280,VALID,0.355183,
2005-10-21, 03:08:00,VALID,916.155,VALID,0,VALID,100,VALID,-0.0679233,VALID,18.3476,VALID,329,VALID,0.267045,
2005-10-21, 03:09:00,VALID,916.147,VALID,0,VALID,100,VALID,-0.101885,VALID,18.3343,VALID,346,VALID,0.423328,
2005-10-21, 03:10:00,VALID,916.14,VALID,0,VALID,100,VALID,-0.0679233,VALID,18.3377,VALID,302,VALID,0.752362,
2005-10-21, 03:11:00,VALID,916.134,VALID,0,VALID,100,VALID,-0.0169808,VALID,18.3181,VALID,271,VALID,0.380996,
2005-10-21, 03:12:00,VALID,916.118,VALID,0,VALID,100,VALID,-0.0679233,VALID,18.3315,VALID,271,VALID,0.30163,
2005-10-21, 03:13:00,VALID,916.113,VALID,0,VALID,100,VALID,-0.0509425,VALID,18.3541,VALID,308,VALID,0.486049,
2005-10-21, 03:14:00,VALID,916.11,VALID,0,VALID,100,VALID,-0.101885,VALID,18.3864,VALID,332,VALID,0.362038,
2005-10-21, 03:15:00,VALID,916.102,VALID,0,VALID,100,VALID,-0.0679233,VALID,18.3832,VALID,337,VALID,0.758539,
2005-10-21, 03:16:00,VALID,916.123,VALID,0,VALID,100,VALID,-0.101885,VALID,18.4062,VALID,21,VALID,0.229651,
2005-10-21, 03:17:00,VALID,916.112,VALID,0,VALID,100,VALID,-0.0849042,VALID,18.3991,VALID,18,VALID,0.438772,
2005-10-21, 03:18:00,VALID,916.102,VALID,0,VALID,100,VALID,0.0679233,VALID,18.4369,VALID,10,VALID,0.314862,
2005-10-21, 03:19:00,VALID,916.104,VALID,0,VALID,100,VALID,0,VALID,18.4334,VALID,343,VALID,0.428234,
2005-10-21, 03:20:00,VALID,916.097,VALID,0,VALID,100,VALID,0.0169808,VALID,18.4431,VALID,343,VALID,0.552778,
2005-10-21, 03:21:00,VALID,916.074,VALID,0,VALID,100,VALID,0.0679233,VALID,18.4404,VALID,355,VALID,0.464666,
2005-10-21, 03:22:00,VALID,916.094,VALID,0,VALID,100,VALID,0,VALID,18.4563,VALID,299,VALID,0.707617,
2005-10-21, 03:23:00,VALID,916.096,VALID,0,VALID,100,VALID,0.0339617,VALID,18.4334,VALID,273,VALID,0.16806,
2005-10-21, 03:24:00,VALID,916.101,VALID,0,VALID,100,VALID,0,VALID,18.4272,VALID,331,VALID,0.294531,
2005-10-21, 03:25:00,VALID,916.094,VALID,0,VALID,100,VALID,0.0339617,VALID,18.4561,VALID,7,VALID,0.158398,
2005-10-21, 03:26:00,VALID,916.109,VALID,0,VALID,100,VALID,0.0339617,VALID,18.4782,VALID,7,VALID,0.496603,
2005-10-21, 03:27:00,VALID,916.111,VALID,0,VALID,100,VALID,0.0679233,VALID,18.5114,VALID,6,VALID,0.591388,
2005-10-21, 03:28:00,VALID,916.102,VALID,0,VALID,100,VALID,0.0169808,VALID,18.5139,VALID,13,VALID,0.939878,
2005-10-21, 03:29:00,VALID,916.106,VALID,0,VALID,100,VALID,0.0339617,VALID,18.5499,VALID,12,VALID,0.696584,
2005-10-21, 03:30:00,VALID,916.109,VALID,0,VALID,100,VALID,0.0169808,VALID,18.5562,VALID,5,VALID,0.778582,
2005-10-21, 03:31:00,VALID,916.112,VALID,0,VALID,100,VALID,0.0169808,VALID,18.5398,VALID,338,VALID,0.986852,
2005-10-21, 03:32:00,VALID,916.106,VALID,0,VALID,100,VALID,0.0339617,VALID,18.4717,VALID,358,VALID,1.61179,
2005-10-21, 03:33:00,VALID,916.115,VALID,0,VALID,100,VALID,-0.0679233,VALID,18.3961,VALID,349,VALID,1.43398,
2005-10-21, 03:34:00,VALID,916.109,VALID,0,VALID,100,VALID,-0.0509425,VALID,18.3832,VALID,339,VALID,0.528646,
2005-10-21, 03:35:00,VALID,916.123,VALID,0,VALID,100,VALID,-0.0509425,VALID,18.367,VALID,339,VALID,0.282012,
2005-10-21, 03:36:00,VALID,916.103,VALID,0,VALID,100,VALID,-0.0509425,VALID,18.3666,VALID,12,VALID,1.01722,
2005-10-21, 03:37:00,VALID,916.089,VALID,0,VALID,100,VALID,-0.0509425,VALID,18.3733,VALID,12,VALID,1.4369,
2005-10-21, 03:38:00,VALID,916.09,VALID,0,VALID,100,VALID,-0.0339617,VALID,18.3343,VALID,10,VALID,1.57143,
2005-10-21, 03:39:00,VALID,916.067,VALID,0,VALID,100,VALID,-0.0169808,VALID,18.3412,VALID,16,VALID,1.77289,
2005-10-21, 03:40:00,VALID,916.093,VALID,0,VALID,100,VALID,-0.0509425,VALID,18.3315,VALID,352,VALID,1.01916,